Find Starlink 1655

NORAD ID: 47623 Int'l Des: 2021-012 Owner: SPXS Country: US Constellation: starlink decayed
LEOCIRCULAR

Re-entered — Jun 29, 2026

3D地球を読み込み中...

About Starlink 1655

Starlink 1655 (NORAD 47623) is a starlink constellation satellite (v1.0) launched Feb 16, 2021 by SPXS of US. It re-entered the atmosphere on Jun 29, 2026. with a mass of 260.00 kg.

高度履歴

Loading altitude history...

軌道要素

1 47623U 21012D 26180.77261429 .12302012 12461-4 24119-3 0 9992
2 47623 53.0094 122.3884 0009388 238.2608 121.7526 16.46507855299203
Epoch: Jun 29, 2026 • Age: 1353 hours

現在のステータス

Position data unavailable
打ち上げ日 Feb 16, 2021
運用期間 5.5 years
落下予定日 Jun 29, 2026
タイプ internet

技術仕様

分類 Payload
質量 260.00 kg
乾燥質量 248.00 kg
総質量 260.00 kg
長さ 0.20 m
直径 2.80 m
スパン 9.00 m
形状 Box + pan
製造者 SPXS
バスタイプ Starlink
フェーズステータス Unknown Transfer Status
所有者/国 SPXS/US

Most Searched